Location: JKWMA (FRAC)
(33.1803°N, 84.5512°W)
Time: 12:54:48
(UTC-04:00)

Hubble Space Telescope - Pass Details

Date: 26 March 2019
Orbit: 536 x 540 km, 28.5° (Epoch: 16 October)

Event Time Altitude Azimuth Distance (km) Brightness Sun altitude
Rises 22:14:52 0° 259° (WSW) 2,674 5.1 -29.3°
Reaches altitude 10° 22:17:11 10° 252° (WSW) 1,784 3.9 -29.7°
Enters shadow 22:18:20 17° 246° (WSW) 1,374 3.2 -29.9°
